Sacramento International, CA

12:09 AM PST on November 20, 2017 (GMT -0800)
Sacramento International

Weather History for KSMF - October, 2012

Change the Weather History Date:

Thursday, October 11, 2012

  Actual Average Record
Temperature  
Mean Temperature 60 °F -  
Max Temperature 69 °F 79 °F 96 °F (1991)
Min Temperature 52 °F 51 °F 39 °F (1998)
Degree Days  
Heating Degree Days 4    
Growing Degree Days 10 (Base 50)    
Moisture  
Dew Point 50 °F    
Average Humidity 74    
Maximum Humidity 89    
Minimum Humidity 53    
Precipitation  
Precipitation 0.00 in - - ()
Sea Level Pressure  
Sea Level Pressure 29.87 in    
Wind  
Wind Speed 11 mph (SSE)    
Max Wind Speed 21 mph    
Max Gust Speed 28 mph    
Visibility 10 miles    
Events      
Averages and records for this station are not official NWS values.
T = Trace of Precipitation, MM = Missing Value Source: NWS Daily Summary

Daily Weather History Graph

Daily Weather History Graph

Search for Another Location

Airport or City:

Trip Planner

Search our weather history database for the weather conditions in past years. The results will help you decide how hot, cold, wet, or windy it might be!

Date:

Astronomy

Oct. 11, 2012 Rise Set
Actual Time 7:12 AM PDT 6:32 PM PDT
Civil Twilight 6:45 AM PDT 6:59 PM PDT
Nautical Twilight 6:14 AM PDT 7:30 PM PDT
Astronomical Twilight 5:43 AM PDT 8:01 PM PDT
Moon 2:58 AM PDT (10/11) 4:10 PM PDT (10/11)
Length of Visible Light 12h 14m
Length of Day
11h 20m
Waning Crescent, 17% of the Moon is Illuminated
Oct 11
Waning Crescent
Oct 15
New
Oct 21
First Quarter
Oct 29
Full
Nov 6
Last Quarter

Hourly Weather History & Observations

Time (PDT) Temp. Dew Point Humidity Pressure Visibility Wind Dir Wind Speed Gust Speed Precip Events Conditions
12:53 AM 59.0 °F 51.1 °F 75% 29.87 in 10.0 mi SE 11.5 mph - N/A   Clear
1:53 AM 57.9 °F 50.0 °F 75% 29.88 in 10.0 mi SSE 12.7 mph - N/A   Clear
2:53 AM 57.0 °F 51.1 °F 81% 29.88 in 10.0 mi SSE 9.2 mph - N/A   Clear
3:53 AM 55.0 °F 51.1 °F 86% 29.86 in 10.0 mi SE 8.1 mph - N/A   Clear
4:53 AM 55.0 °F 50.0 °F 83% 29.85 in 10.0 mi SSE 5.8 mph - N/A   Clear
5:53 AM 54.0 °F 50.0 °F 86% 29.85 in 10.0 mi ESE 6.9 mph - N/A   Clear
6:53 AM 52.0 °F 48.0 °F 86% 29.84 in 10.0 mi Calm Calm - N/A   Clear
7:53 AM 53.1 °F 50.0 °F 89% 29.84 in 10.0 mi SE 5.8 mph - N/A   Clear
8:53 AM 55.9 °F 50.0 °F 80% 29.85 in 10.0 mi Calm Calm - N/A   Clear
9:53 AM 59.0 °F 51.1 °F 75% 29.86 in 10.0 mi East 3.5 mph - N/A   Clear
10:53 AM 62.1 °F 50.0 °F 65% 29.86 in 10.0 mi South 8.1 mph - N/A   Clear
11:53 AM 64.9 °F 51.1 °F 61% 29.84 in 10.0 mi South 8.1 mph - N/A   Clear
12:53 PM 69.1 °F 51.1 °F 53% 29.83 in 10.0 mi South 13.8 mph 20.7 mph N/A   Clear
1:53 PM 66.9 °F 50.0 °F 54% 29.84 in 10.0 mi SSE 20.7 mph - N/A   Clear
2:53 PM 64.4 °F 51.8 °F 64% 29.85 in 10.0 mi South 20.7 mph 26.5 mph N/A   Clear
3:53 PM 62.6 °F 51.8 °F 68% 29.84 in 10.0 mi SSW 20.7 mph - N/A   Clear
4:53 PM 63.0 °F 50.0 °F 63% 29.86 in 10.0 mi South 19.6 mph 25.3 mph N/A   Mostly Cloudy
5:53 PM 61.0 °F 50.0 °F 67% 29.85 in 10.0 mi South 19.6 mph 27.6 mph N/A   Partly Cloudy
6:53 PM 57.9 °F 50.0 °F 75% 29.87 in 10.0 mi South 17.3 mph 24.2 mph N/A   Scattered Clouds
7:53 PM 57.0 °F 50.0 °F 77% 29.90 in 10.0 mi South 17.3 mph 24.2 mph N/A   Partly Cloudy
8:53 PM 57.0 °F 48.9 °F 74% 29.93 in 10.0 mi South 17.3 mph 23.0 mph N/A   Clear
9:53 PM 57.0 °F 48.9 °F 74% 29.94 in 10.0 mi South 13.8 mph - N/A   Clear
10:53 PM 55.9 °F 50.0 °F 80% 29.94 in 10.0 mi South 10.4 mph - N/A   Clear
11:53 PM 55.0 °F 50.0 °F 83% 29.95 in 10.0 mi South 8.1 mph - N/A   Clear